Regional Weather Roundup
Issued by NWS

Home | Current Version | Previous Version | Graphics & Text | Print | Product List | Glossary On
Versions: 1 2 3 4 5 6 7 8 9 10 11 12 13 14 15 16 17 18 19 20 21 22 23 24 25 26 27 28 29 30 31 32 33 34 35 36 37 38 39 40 41 42 43 44 45 46 47 48 49 50
000
ASUS43 KDMX 270603
RWRIA

WEATHER ROUNDUP FOR IOWA
NATIONAL WEATHER SERVICE DES MOINES IA
100 AM CDT WED JUL 27 2016

NOTE: "FAIR" INDICATES FEW OR NO CLOUDS BELOW 12,000 FEET WITH NO
SIGNIFICANT WEATHER AND/OR OBSTRUCTIONS TO VISIBILITY.

* - THESE STATIONS ARE NOT NWS STATIONS...THUS NOT UNDER NWS
QUALITY CONTROL.  THEY ALSO DO NOT REPORT WEATHER SUCH
AS PRECIPITATION OR FOG.

IAZ001>003-012>014-020>022-031>034-043>046-270700-
   NORTHWEST IOWA

CITY           SKY/WX    TMP DP  RH WIND       PRES   REMARKS
CARROLL *      PTCLDY    66  66 100 S3        30.02S
CHEROKEE *     PTCLDY    68  67  95 S3        30.01S
DENISON *      MOCLDY    68  66  94 CALM      30.01R
LE MARS *      PTCLDY    70  68  94 SW6       30.01R
SHELDON *      CLOUDY    70  68  94 S8        29.99S
SIOUX CITY     CLOUDY    74  67  78 S6        29.99S
6HR MIN TEMP:  71; 6HR MAX TEMP:  86;

SPENCER        CLOUDY    68  65  90 S7        30.00F
6HR MIN TEMP:  67; 6HR MAX TEMP:  83;

STORM LAKE *   CLEAR     66  64  94 S8        30.03F
$$

IAZ055>058-069>071-079>083-090>094-270700-
   SOUTHWEST IOWA

CITY           SKY/WX    TMP DP  RH WIND       PRES   REMARKS
ATLANTIC *     CLEAR     66  64  94 CALM      30.02S
CLARINDA *       N/A     64  64 100 MISG      30.04S
COUNCIL BLFS *   N/A     72  66  83 SE3       30.02S
CRESTON *      CLEAR     66  66 100 E3        30.05S
HARLAN  *      MOCLDY    64  64 100 CALM      30.05S
LAMONI         PTCLDY    72  65  78 CALM      30.02S
6HR MIN TEMP:  70; 6HR MAX TEMP:  82;

RED OAK *      CLEAR     68  64  88 CALM      30.02S
SHENANDOAH *     N/A     68  68 100 CALM      30.02S
$$

IAZ047>049-059>061-072>074-084-270700-
   CENTRAL IOWA

CITY           SKY/WX    TMP DP  RH WIND       PRES   REMARKS
AMES           CLEAR     64  64 100 S3        30.02F
6HR MIN TEMP:  64; 6HR MAX TEMP:  82;

ANKENY *         N/A    N/A N/A N/A MISG        N/A
BOONE *          N/A     68  64  88 CALM      30.01F
CHARITON *       N/A    N/A N/A N/A MISG        N/A
DES MOINES     CLEAR     75  65  70 S5        30.01F
6HR MIN TEMP:  74; 6HR MAX TEMP:  84;

GRINNELL*      CLEAR     66  63  89 CALM      30.04S
KNOXVILLE *    CLEAR     72  64  78 CALM      30.01S
MARSHALLTOWN   CLEAR     66  64  93 CALM      30.02S
6HR MIN TEMP:  65; 6HR MAX TEMP:  82;

NEWTON *       CLEAR     68  66  94 CALM      30.02S
PELLA *        CLEAR     67  65  94 CALM      30.03S
PERRY *          N/A     65  65  97 CALM      30.02F
$$

IAZ004>006-015-016-023>025-035-036-270700-
   NORTH CENTRAL IOWA

CITY           SKY/WX    TMP DP  RH WIND       PRES   REMARKS
ALGONA *       CLEAR     70  68  94 S7        30.01F
ESTHERVILLE    CLEAR     67  66  97 S3        30.01F
6HR MIN TEMP:  67; 6HR MAX TEMP:  81;

FORT DODGE *   PTCLDY    70  64  83 CALM      30.03S
MASON CITY     CLOUDY    68  65  90 S6        30.04S
6HR MIN TEMP:  67; 6HR MAX TEMP:  82;

FOREST CITY *    N/A     70  66  88 S6        30.03S
IOWA FALLS *     N/A     67  64  89 CALM      30.05S
$$

IAZ007>011-017>019-026>030-037>042-050>054-066-270700-
   NORTHEAST IOWA

CITY           SKY/WX    TMP DP  RH WIND       PRES   REMARKS
CEDAR RAPIDS   CLEAR     66  66 100 CALM      30.01F
6HR MIN TEMP:  66; 6HR MAX TEMP:  82;

CHARLES CITY * CLEAR     68  68 100 SW6       30.04S
CLINTON *      CLEAR     69  66  90 CALM      30.02S
DECORAH *      MOCLDY    68  68 100 CALM      30.01S
DUBUQUE        CLEAR     67  65  93 CALM      30.03F
6HR MIN TEMP:  66; 6HR MAX TEMP:  83;

MONTICELLO *   CLEAR     64  64 100 CALM      30.01F
OELWEIN *      CLEAR     68  66  94 CALM      30.04S
WATERLOO       CLEAR     67  65  93 CALM      30.01F
6HR MIN TEMP:  66; 6HR MAX TEMP:  84;

$$

IAZ064-065-067-068-078-270700-
   EAST CENTRAL IOWA

CITY           SKY/WX    TMP DP  RH WIND       PRES   REMARKS
DAVENPORT      CLEAR     65  63  93 CALM      30.02F
6HR MIN TEMP:  65; 6HR MAX TEMP:  82;

IOWA CITY      CLEAR     70  66  87 CALM      30.02S
6HR MIN TEMP:  69; 6HR MAX TEMP:  83;

MT. PLEASANT * CLEAR     70  69  98 CALM      30.01S
MUSCATINE *    CLEAR     70  66  88 CALM      30.02R
QUAD CITIES    CLEAR     68  65  90 CALM      30.00F
6HR MIN TEMP:  68; 6HR MAX TEMP:  84;

$$

IAZ062-063-075>077-085>089-095>099-270700-
   SOUTHEAST IOWA

CITY           SKY/WX    TMP DP  RH WIND       PRES   REMARKS
BURLINGTON     CLEAR     74  68  81 E3        30.01S
6HR MIN TEMP:  70; 6HR MAX TEMP:  83;

FAIRFIELD *    CLEAR     66  64  94 CALM      30.02S
KEOKUK *       PTCLDY    72  68  88 CALM      30.00S
CENTERVILLE *    N/A     63  63 100 CALM      30.04F
OTTUMWA        CLEAR     65  63  93 CALM      30.00F
6HR MIN TEMP:  65; 6HR MAX TEMP:  83;

WASHINGTON *   CLEAR     68  66  94 CALM      30.03S
$$

ABBREVIATIONS USED IN REMARKS
   TC - TEMPERATURES IN CELSIUS
  WCI - WIND CHILL INDEX
   HX - HEAT INDEX
  VSB - VISIBILITY
$$





USA.gov is the U.S. government's official web portal to all federal, state and local government web resources and services.